Weather History for KMHK - June, 2013

Change the Weather History Date:

Sunday, June 30, 2013

  Actual Average Record
Temperature  
Mean Temperature 69 °F 78 °F  
Max Temperature 79 °F 89 °F 105 °F (2011)
Min Temperature 58 °F 66 °F 55 °F (2008)
Degree Days  
Heating Degree Days 0 0  
Month to date heating degree days 9 8  
Since 1 June heating degree days 9 11  
Since 1 July heating degree days 5184 5315  
Cooling Degree Days 4 13  
Month to date cooling degree days 318 270  
Year to date cooling degree days 454 370  
Since 1 June cooling degree days 318 270  
Growing Degree Days 19 (Base 50)    
Moisture  
Dew Point 57 °F    
Average Humidity 67    
Maximum Humidity 90    
Minimum Humidity 43    
Precipitation  
Precipitation 0.00 in 0.13 in 0.15 in (1998)
Month to date precipitation 3.18 5.09  
Year to date precipitation 12.79 16.29  
Sea Level Pressure  
Sea Level Pressure 30.01 in    
Wind  
Wind Speed 6 mph (NNE)    
Max Wind Speed 17 mph    
Max Gust Speed 23 mph    
Visibility 10 miles    
Events      
T = Trace of Precipitation, MM = Missing Value Source: NWS Daily Summary

Daily Weather History Graph

Daily Weather History Graph

Search for Another Location

Airport or City:

Trip Planner

Search our weather history database for the weather conditions in past years. The results will help you decide how hot, cold, wet, or windy it might be!

Date:

Astronomy

Jun. 30, 2013 Rise Set
Actual Time 6:04 AM CDT 8:56 PM CDT
Civil Twilight 5:31 AM CDT 9:28 PM CDT
Nautical Twilight 4:51 AM CDT 10:09 PM CDT
Astronomical Twilight 4:04 AM CDT 10:55 PM CDT
Moon 1:01 AM CDT (6/30) 2:14 PM CDT (6/30)
Length of Visible Light 15h 56m
Length of Day
14h 52m
Last Quarter, 45% of the Moon is Illuminated
Jun 30
Last Quarter
Jul 8
New
Jul 15
First Quarter
Jul 22
Full
Jul 29
Last Quarter

Hourly Weather History & Observations

Time (CDT) Temp. Dew Point Humidity Pressure Visibility Wind Dir Wind Speed Gust Speed Precip Events Conditions
12:52 AM 62.1 °F 59.0 °F 90% 29.94 in 10.0 mi Calm Calm - N/A   Clear
1:52 AM 61.0 °F 57.9 °F 90% 29.94 in 10.0 mi Calm Calm - N/A   Clear
2:52 AM 61.0 °F 57.9 °F 90% 29.95 in 10.0 mi Calm Calm - N/A   Clear
3:52 AM 61.0 °F 57.9 °F 90% 29.95 in 10.0 mi Calm Calm - N/A   Clear
4:52 AM 61.0 °F 57.9 °F 90% 29.96 in 10.0 mi Calm Calm - N/A   Clear
5:52 AM 60.1 °F 57.0 °F 90% 29.98 in 10.0 mi Calm Calm - N/A   Partly Cloudy
6:52 AM 61.0 °F 57.9 °F 90% 29.99 in 10.0 mi NE 4.6 mph - N/A   Clear
7:52 AM 64.9 °F 60.1 °F 84% 30.01 in 10.0 mi Calm Calm - N/A   Clear
8:52 AM 70.0 °F 59.0 °F 68% 30.03 in 10.0 mi NNE 6.9 mph - N/A   Clear
9:52 AM 72.0 °F 55.9 °F 57% 30.03 in 10.0 mi NNE 10.4 mph - N/A   Clear
10:52 AM 75.0 °F 57.0 °F 53% 30.03 in 10.0 mi NE 12.7 mph - N/A   Partly Cloudy
11:52 AM 75.0 °F 55.9 °F 51% 30.03 in 10.0 mi NNE 8.1 mph 16.1 mph N/A   Partly Cloudy
12:52 PM 75.0 °F 55.9 °F 51% 30.03 in 10.0 mi NNE 12.7 mph - N/A   Mostly Cloudy
1:52 PM 78.1 °F 55.9 °F 46% 30.02 in 10.0 mi North 8.1 mph 18.4 mph N/A   Mostly Cloudy
2:52 PM 78.1 °F 55.0 °F 45% 30.02 in 10.0 mi NNE 11.5 mph 20.7 mph N/A   Scattered Clouds
3:52 PM 77.0 °F 55.0 °F 47% 30.02 in 9.0 mi NNE 13.8 mph 20.7 mph N/A   Mostly Cloudy
4:52 PM 78.1 °F 55.0 °F 45% 30.01 in 9.0 mi NNE 15.0 mph 19.6 mph N/A   Clear
5:52 PM 77.0 °F 53.1 °F 43% 30.02 in 9.0 mi NNE 12.7 mph - N/A   Clear
6:52 PM 75.9 °F 54.0 °F 46% 30.02 in 10.0 mi NE 12.7 mph - N/A   Clear
7:52 PM 73.9 °F 55.9 °F 53% 30.02 in 10.0 mi NNE 3.5 mph - N/A   Clear
8:52 PM 70.0 °F 55.9 °F 61% 30.03 in 10.0 mi NNW 3.5 mph - N/A   Clear
9:52 PM 68.0 °F 57.0 °F 68% 30.05 in 10.0 mi NNW 3.5 mph - N/A   Clear
10:52 PM 63.0 °F 57.0 °F 81% 30.07 in 10.0 mi Calm Calm - N/A   Clear
11:52 PM 62.1 °F 57.0 °F 84% 30.07 in 10.0 mi Calm Calm - N/A   Clear